[[{"header":{"parameterUnit":"m.s-1","parameterCategory":1,"la1":30.2991,"la2":30.254,"lo1":-89.0895,"lo2":-89.0444,"dy":0.0017,"dx":0.0017,"nx":28,"ny":28,"refTime":"2024-11-27T09:00:00:Z","depth":0,"parameterNumber":2,"parameterNumberName":"U-component_of_WINDS"},"data":[0,0,0,0,0,0,0,0,0,0,0,0,0,0,0,0,0,0,0,0,0,0,0,0,0,0,0,0,0,0,0,0,0,0,0,0,0,0,0,0,0,0,0,0,0,0,0,0,0,0,0,0,0,0,0,0,0,0,3.6293,3.6294,0,3.6372,3.6373,3.6374,3.6329,3.6326,3.6324,3.6322,3.6405,3.6409,3.6413,0,0,0,0,0,0,0,0,0,0,0,0,0,3.6107,3.6111,3.6293,3.6294,3.6295,3.6372,3.6373,3.6374,3.6329,3.6326,3.6324,3.6321,3.6403,3.6408,3.6413,0,0,0,0,0,0,0,0,0,0,0,0,0,3.6187,3.6112,3.6293,3.6282,3.6282,3.6372,3.6373,3.6375,3.633,3.6326,3.6323,3.632,3.6402,3.6408,3.6414,3.652,0,0,3.6434,3.6436,0,0,0,0,0,0,0,0,3.6183,3.6194,3.6283,3.6283,3.6283,3.6337,3.6338,3.6423,3.6331,3.6312,3.6322,3.6318,3.6385,3.6393,3.6415,3.6524,3.6528,3.6434,3.6438,3.6441,3.6443,0,0,0,0,0,0,0,3.6177,3.619,3.6325,3.6284,3.6284,3.6274,3.6282,3.6354,3.6366,3.6313,3.631,3.632,3.6384,3.6409,3.6416,3.6529,3.6434,3.644,3.6444,3.6446,3.6732,3.6735,0,0,0,0,0,0,3.6172,3.6186,3.6322,3.6327,3.6223,3.628,3.6289,3.6323,3.6365,3.6368,3.6322,3.6317,3.6399,3.6409,3.6419,3.6547,3.6441,3.6447,3.645,3.6728,3.6732,3.6736,0,0,0,0,0,0,3.6168,3.6185,3.6319,3.6256,3.6272,3.6287,3.6326,3.6326,3.635,3.6372,3.6374,3.6345,3.6397,3.641,3.6496,3.6549,3.645,3.6455,3.6723,3.6729,3.6734,3.6803,0,0,0,0,0,0,3.6163,3.6183,3.6223,3.6257,3.6276,3.6393,3.6329,3.633,3.6361,3.6355,3.6394,3.6397,3.6395,3.6486,3.6502,3.6556,3.646,3.6719,3.6726,3.6733,3.6796,3.6811,3.6823,0,0,0,0,0,3.6157,3.6239,3.6225,3.6242,3.6325,3.6396,3.6407,3.6403,3.6366,3.6406,3.6421,3.6396,3.6541,3.6496,3.6513,3.657,3.6715,3.6724,3.6732,3.679,3.6808,3.6822,0,0,0,0,0,0,3.621,3.6243,3.6228,3.6324,3.6358,3.6389,3.6439,3.6422,3.6467,3.646,3.6454,3.6463,3.6553,3.657,3.6518,3.6676,3.6622,3.6635,3.6661,3.6678,3.6691,3.6684,3.6466,0,0,0,0,0,3.6234,3.6288,3.6314,3.6396,3.6414,3.6424,3.6455,3.6449,3.6484,3.6499,3.6519,3.6555,3.6609,3.6644,3.6695,3.6799,3.6808,3.6847,3.686,3.6871,3.6881,3.694,3.6958,3.6764,3.6764,3.6764,0,0,3.6282,3.6306,3.6341,3.6408,3.6433,3.6491,3.6436,3.6499,3.6542,3.6508,3.659,3.6607,3.6647,3.6743,3.6786,3.676,3.6937,3.6882,3.689,3.6895,3.695,3.6969,3.6985,3.677,3.6769,3.6768,0,0,3.6399,3.6422,3.6494,3.6521,3.6561,3.6568,3.6585,3.662,3.663,3.6712,3.6688,3.6741,3.6833,3.6863,3.689,3.7022,3.7001,3.7039,3.7108,3.7164,3.718,3.7193,3.7241,3.7258,3.7049,3.7049,3.705,0,3.6453,3.6538,3.6533,3.6599,3.6629,3.6602,3.6676,3.6703,3.6757,3.678,3.675,3.6867,3.6891,3.6995,3.7027,3.705,3.7071,3.7034,3.7178,3.7191,3.7204,3.7249,3.7267,3.7054,3.7053,3.7053,3.7052,0,3.6604,3.6664,3.6717,3.6771,3.6808,3.6877,3.6884,3.6922,3.6915,3.6925,3.7011,3.704,3.7097,3.7121,3.7114,3.7224,3.7207,3.7178,3.7124,3.7227,3.7269,3.7287,3.706,3.7058,3.7057,3.7056,0,0,3.6755,3.6807,3.6827,3.6852,3.6895,3.6942,3.7011,3.7066,3.71,3.714,3.7198,3.7279,3.7252,3.7284,3.728,3.733,3.7434,3.7294,3.7295,3.732,3.7559,3.7581,3.7601,3.7421,3.7424,3.7427,3.7556,0,3.6875,3.6994,3.6993,3.7105,3.7161,3.7138,3.7198,3.7232,3.7245,3.7295,3.7309,3.7366,3.7327,3.7346,3.7394,3.7411,3.7482,3.7402,3.7476,3.7479,3.7466,3.7623,3.7645,3.7766,3.7572,3.7575,3.7577,0,3.703,3.7075,3.7192,3.723,3.7253,3.7307,3.736,3.7408,3.7447,3.7453,3.7489,3.7478,3.755,3.7495,3.7595,3.7541,3.7572,3.7585,3.759,3.7596,3.7534,3.7634,3.7804,3.7822,3.7603,3.7601,3.7599,0,3.7128,3.7219,3.7301,3.7323,3.7369,3.7408,3.7429,3.7465,3.7499,3.7545,3.7568,3.7622,3.7652,3.7695,3.77,3.7659,3.7801,3.7746,3.7808,3.7808,3.7838,3.7836,3.8016,3.7859,3.7858,3.7858,3.7858,0,3.7262,3.7335,3.7346,3.7397,3.7478,3.7478,3.7559,3.7577,3.7609,3.7664,3.7648,3.7699,3.7703,3.7757,3.7761,3.7844,3.7858,3.7865,3.7865,3.7866,3.7865,3.7886,3.7878,3.7863,3.7862,3.7861,3.786,0,3.7385,3.7396,3.7484,3.7521,3.7532,3.7591,3.7623,3.7672,3.7684,3.7753,3.777,3.7788,3.7851,3.7861,3.7934,3.7937,3.8037,3.8028,3.8023,3.8022,3.8084,3.8079,3.8283,3.831,3.8136,3.8137,3.8139,0,3.7469,3.7525,3.7568,3.7604,3.7627,3.7684,3.772,3.7723,3.776,3.7811,3.7854,3.7916,3.7964,3.8066,3.8087,3.8144,3.8137,3.8205,3.8145,3.8145,3.8138,3.8135,3.8141,3.8216,3.8218,3.8219,3.822,0,3.7618,3.7621,3.7672,3.7727,3.777,3.7813,3.7854,3.7884,3.7892,3.7936,3.8,3.8038,3.8114,3.8176,3.8233,3.8255,3.824,3.8239,3.8257,3.8258,3.8253,3.8257,3.8055,3.8234,3.8233,3.8232,3.8231,3.823,3.7724,3.7773,3.7812,3.7871,3.7902,3.7941,3.799,3.8009,3.8062,3.8124,3.8123,3.8194,3.8234,3.8309,3.8336,3.8392,3.837,3.8395,3.8402,3.8408,3.8414,3.8245,3.8403,3.8402,3.8402,3.8401,3.8401,0,3.7872,3.7897,3.7951,3.8009,3.8056,3.8038,3.8083,3.8124,3.8186,3.8225,3.8274,3.8349,3.8409,3.8436,3.8496,3.8536,3.8531,3.8552,3.8548,3.8554,3.843,3.8409,3.8555,3.8555,3.8555,3.8555,3.8555,3.8555,3.7954,3.8037,3.8046,3.8145,3.8169,3.8238,3.8266,3.8302,3.8334,3.8418,3.8468,3.8485,3.852,3.8583,3.8638,3.8644,3.8667,3.8692,3.8695,3.8578,3.8563,3.8548,3.8528,3.8697,3.8697,3.8814,3.8816,3.8816]},{"header":{"parameterUnit":"m.s-1","parameterCategory":1,"la1":30.2991,"la2":30.254,"lo1":-89.0895,"lo2":-89.0444,"dy":0.0017,"dx":0.0017,"nx":28,"ny":28,"refTime":"2024-11-27T09:00:00:Z","depth":0,"parameterNumber":3,"parameterNumberName":"V-component_of_WINDS"},"data":[0,0,0,0,0,0,0,0,0,0,0,0,0,0,0,0,0,0,0,0,0,0,0,0,0,0,0,0,0,0,0,0,0,0,0,0,0,0,0,0,0,0,0,0,0,0,0,0,0,0,0,0,0,0,0,0,0,0,4.6381,4.6383,0,4.6591,4.6594,4.6596,4.6616,4.6614,4.6612,4.6609,4.682,4.6828,4.6835,0,0,0,0,0,0,0,0,0,0,0,0,0,4.5993,4.6,4.6381,4.6383,4.6386,4.6591,4.6594,4.6597,4.6616,4.6614,4.6611,4.6608,4.6818,4.6827,4.6836,0,0,0,0,0,0,0,0,0,0,0,0,0,4.6178,4.6002,4.638,4.6421,4.6426,4.659,4.6594,4.6597,4.6617,4.6614,4.661,4.6607,4.6815,4.6826,4.6837,4.6974,0,0,4.6872,4.6877,0,0,0,0,0,0,0,0,4.6167,4.6192,4.6412,4.6418,4.6425,4.6574,4.6534,4.6723,4.6618,4.6544,4.6609,4.6606,4.6741,4.6758,4.6805,4.6984,4.6993,4.6873,4.688,4.6885,4.6888,0,0,0,0,0,0,0,4.6155,4.6183,4.6464,4.6415,4.6423,4.6427,4.645,4.657,4.6658,4.6551,4.6553,4.6577,4.6743,4.6793,4.681,4.6996,4.6873,4.6883,4.689,4.6895,4.7299,4.7302,0,0,0,0,0,0,4.6135,4.6172,4.6457,4.647,4.6286,4.6437,4.6462,4.6529,4.6657,4.6673,4.658,4.6578,4.6775,4.6796,4.6817,4.6987,4.6885,4.6896,4.6902,4.7295,4.73,4.7304,0,0,0,0,0,0,4.6126,4.616,4.6449,4.6322,4.6359,4.6447,4.6522,4.6535,4.6585,4.6679,4.6695,4.6615,4.6774,4.6801,4.6935,4.6994,4.6901,4.6911,4.729,4.7296,4.7302,4.7326,0,0,0,0,0,0,4.6115,4.6157,4.621,4.6323,4.6366,4.6565,4.6526,4.6542,4.6606,4.6604,4.6716,4.6732,4.6773,4.6918,4.6947,4.7008,4.692,4.7285,4.7293,4.73,4.732,4.7332,4.7342,0,0,0,0,0,4.6101,4.6207,4.6213,4.6247,4.6435,4.6568,4.6592,4.6639,4.661,4.6665,4.6725,4.6728,4.6983,4.6932,4.6964,4.703,4.7282,4.7291,4.7299,4.7315,4.733,4.7341,0,0,0,0,0,0,4.6097,4.6223,4.623,4.6377,4.6462,4.6571,4.6641,4.6652,4.6746,4.6741,4.6794,4.6819,4.6951,4.7004,4.6945,4.7169,4.7129,4.7145,4.7131,4.7145,4.7155,4.714,4.693,0,0,0,0,0,4.6114,4.6213,4.6316,4.6435,4.6478,4.6552,4.6612,4.6641,4.673,4.6766,4.6836,4.6922,4.7021,4.7086,4.7182,4.7328,4.7353,4.7389,4.74,4.7408,4.7421,4.7503,4.752,4.7332,4.7332,4.7332,0,0,4.6148,4.6229,4.6288,4.6437,4.6506,4.6607,4.6582,4.6689,4.6764,4.6782,4.6914,4.6968,4.7067,4.7208,4.7274,4.7256,4.7479,4.7419,4.7425,4.7434,4.7514,4.7531,4.7547,4.7338,4.7337,4.7336,0,0,4.6263,4.6334,4.6441,4.6512,4.6618,4.6667,4.6693,4.6801,4.6839,4.6972,4.6988,4.7077,4.7247,4.7318,4.7376,4.7518,4.7525,4.7548,4.7604,4.7683,4.7698,4.7712,4.7764,4.7781,4.756,4.7561,4.7561,0,4.6292,4.6445,4.6495,4.6603,4.6668,4.669,4.6799,4.6865,4.6996,4.704,4.7019,4.7234,4.7302,4.746,4.7496,4.7541,4.7572,4.7536,4.7692,4.7706,4.772,4.777,4.7789,4.7563,4.7563,4.7562,4.7562,0,4.6476,4.6582,4.6656,4.6785,4.6859,4.6966,4.7031,4.7099,4.7122,4.7173,4.7309,4.7392,4.7506,4.7546,4.7568,4.7708,4.7694,4.7682,4.7643,4.7739,4.7787,4.7806,4.7566,4.7565,4.7565,4.7564,0,0,4.6594,4.675,4.6777,4.6836,4.6955,4.7038,4.7146,4.726,4.7318,4.7408,4.75,4.7644,4.7635,4.7701,4.7731,4.78,4.7909,4.778,4.7783,4.7802,4.8069,4.8078,4.81,4.7914,4.7918,4.7921,4.8062,0,4.6723,4.6919,4.6967,4.7134,4.7233,4.7257,4.7351,4.7434,4.7485,4.7575,4.763,4.7732,4.7711,4.7751,4.7821,4.7881,4.7964,4.7872,4.8,4.8004,4.7976,4.8125,4.8135,4.8263,4.808,4.8084,4.8086,0,4.6899,4.6996,4.7173,4.7281,4.7325,4.7409,4.7518,4.7604,4.7699,4.7731,4.7805,4.7829,4.7942,4.7897,4.8054,4.799,4.8045,4.8083,4.8089,4.8104,4.8052,4.8144,4.8305,4.8325,4.8116,4.8113,4.8111,0,4.6969,4.7142,4.7272,4.7322,4.745,4.751,4.7566,4.7657,4.7723,4.7817,4.7861,4.7966,4.8024,4.8105,4.8157,4.8119,4.831,4.8268,4.8339,4.8338,4.8379,4.8376,4.8552,4.8413,4.8412,4.8412,4.8412,0,4.7108,4.7216,4.7305,4.7385,4.7507,4.756,4.7679,4.7735,4.7817,4.7907,4.7932,4.8016,4.8079,4.8171,4.8212,4.8336,4.8362,4.839,4.84,4.8389,4.8386,4.8427,4.8419,4.8417,4.8416,4.8415,4.8414,0,4.7206,4.727,4.7413,4.7524,4.7555,4.764,4.7734,4.7812,4.7863,4.7977,4.8007,4.8087,4.8198,4.8257,4.8394,4.8422,4.8561,4.8565,4.853,4.8535,4.8603,4.8596,4.8812,4.8844,4.8682,4.8683,4.8685,0,4.7291,4.7376,4.7497,4.756,4.7618,4.7719,4.7787,4.7843,4.7913,4.8028,4.8092,4.8204,4.8297,4.8471,4.8541,4.8646,4.8654,4.8723,4.867,4.8657,4.8657,4.8651,4.8661,4.8732,4.8733,4.8735,4.8736,0,4.7436,4.7465,4.7563,4.7673,4.7754,4.7842,4.793,4.798,4.805,4.8127,4.8241,4.8313,4.8455,4.8566,4.8677,4.8733,4.8747,4.8752,4.8774,4.8764,4.8741,4.8755,4.8557,4.8746,4.8745,4.8745,4.8744,4.8744,4.7532,4.7608,4.7706,4.7815,4.7887,4.7969,4.8048,4.8111,4.8208,4.8329,4.8355,4.8476,4.8569,4.872,4.8779,4.8874,4.886,4.8892,4.89,4.8908,4.8911,4.8725,4.8894,4.8894,4.8893,4.8893,4.8893,0,4.7679,4.7744,4.7843,4.7967,4.8052,4.8059,4.8157,4.8227,4.8334,4.842,4.8512,4.8643,4.8752,4.883,4.894,4.9001,4.901,4.9028,4.9025,4.9038,4.8916,4.8887,4.9019,4.9019,4.9019,4.9019,4.9019,4.9019,4.7766,4.7897,4.7936,4.8103,4.8166,4.8287,4.8342,4.8417,4.8487,4.8634,4.8725,4.8776,4.8859,4.8976,4.9075,4.9096,4.9135,4.9153,4.9174,4.9059,4.9046,4.9033,4.9006,4.9161,4.9161,4.9288,4.9289,4.929]}]]